Year,Month,Day,Hour,Minute,Value (Times are PST for temperature in C)
2010,08,29,00,00,10.70
2010,08,29,00,01,10.70
2010,08,29,00,02,10.70
2010,08,29,00,03,10.70
2010,08,29,00,04,10.70
2010,08,29,00,05,10.70
2010,08,29,00,06,10.70
2010,08,29,00,07,10.70
2010,08,29,00,08,10.70
2010,08,29,00,09,10.70
2010,08,29,00,10,10.80
2010,08,29,00,11,10.70
2010,08,29,00,12,10.80
2010,08,29,00,13,10.80
2010,08,29,00,14,10.80
2010,08,29,00,15,10.80
2010,08,29,00,16,10.80
2010,08,29,00,17,10.80
2010,08,29,00,18,10.80
2010,08,29,00,19,10.80
2010,08,29,00,20,10.70
2010,08,29,00,21,10.70
2010,08,29,00,22,10.70
2010,08,29,00,23,10.70
2010,08,29,00,24,10.70
2010,08,29,00,25,10.70
2010,08,29,00,26,10.70
2010,08,29,00,27,10.70
2010,08,29,00,28,10.70
2010,08,29,00,29,10.70
2010,08,29,00,30,10.60
2010,08,29,00,31,10.60
2010,08,29,00,32,10.60
2010,08,29,00,33,10.60
2010,08,29,00,34,10.50
2010,08,29,00,35,10.50
2010,08,29,00,36,10.40
2010,08,29,00,37,10.40
2010,08,29,00,38,10.30
2010,08,29,00,39,10.20
2010,08,29,00,40,10.10
2010,08,29,00,41,10.00
2010,08,29,00,42,9.90
2010,08,29,00,43,9.90
2010,08,29,00,44,9.90
2010,08,29,00,45,9.80
2010,08,29,00,46,9.80
2010,08,29,00,47,9.80
2010,08,29,00,48,9.80
2010,08,29,00,49,9.80
2010,08,29,00,50,9.70
2010,08,29,00,51,9.70
2010,08,29,00,52,9.70
2010,08,29,00,53,9.70
2010,08,29,00,54,9.80
2010,08,29,00,55,9.80
2010,08,29,00,56,9.80
2010,08,29,00,57,9.80
2010,08,29,00,58,9.80
2010,08,29,00,59,9.80
2010,08,29,01,00,9.80
2010,08,29,01,01,9.80
2010,08,29,01,02,9.80
2010,08,29,01,03,9.80
2010,08,29,01,04,9.80
2010,08,29,01,05,9.80
2010,08,29,01,06,9.80
2010,08,29,01,07,9.80
2010,08,29,01,08,9.80
2010,08,29,01,09,9.80
2010,08,29,01,10,9.80
2010,08,29,01,11,9.80
2010,08,29,01,12,9.80
2010,08,29,01,13,9.80
2010,08,29,01,14,9.80
2010,08,29,01,15,9.80
2010,08,29,01,16,9.90
2010,08,29,01,17,9.90
2010,08,29,01,18,9.80
2010,08,29,01,19,9.80
2010,08,29,01,20,9.80
2010,08,29,01,21,9.80
2010,08,29,01,22,9.70
2010,08,29,01,23,9.70
2010,08,29,01,24,9.70
2010,08,29,01,25,9.70
2010,08,29,01,26,9.70
2010,08,29,01,27,9.70
2010,08,29,01,28,9.60
2010,08,29,01,29,9.60
2010,08,29,01,30,9.60
2010,08,29,01,31,9.60
2010,08,29,01,32,9.60
2010,08,29,01,33,9.60
2010,08,29,01,34,9.60
2010,08,29,01,35,9.60
2010,08,29,01,36,9.60
2010,08,29,01,37,9.60
2010,08,29,01,38,9.60
2010,08,29,01,39,9.60
2010,08,29,01,40,9.60
2010,08,29,01,41,9.60
2010,08,29,01,42,9.60
2010,08,29,01,43,9.60
2010,08,29,01,44,9.50
2010,08,29,01,45,9.50
2010,08,29,01,46,9.50
2010,08,29,01,47,9.50
2010,08,29,01,48,9.40
2010,08,29,01,49,9.40
2010,08,29,01,50,9.40
2010,08,29,01,51,9.40
2010,08,29,01,52,9.40
2010,08,29,01,53,9.40
2010,08,29,01,54,9.40
2010,08,29,01,55,9.40
2010,08,29,01,56,9.40
2010,08,29,01,57,9.40
2010,08,29,01,58,9.40
2010,08,29,01,59,9.40
2010,08,29,02,00,9.40
2010,08,29,02,01,9.40
2010,08,29,02,02,9.40
2010,08,29,02,03,9.40
2010,08,29,02,04,9.30
2010,08,29,02,05,9.30
2010,08,29,02,06,9.30
2010,08,29,02,07,9.30
2010,08,29,02,08,9.30
2010,08,29,02,09,9.30
2010,08,29,02,10,9.30
2010,08,29,02,11,9.30
2010,08,29,02,12,9.30
2010,08,29,02,13,9.30
2010,08,29,02,14,9.30
2010,08,29,02,15,9.40
2010,08,29,02,16,9.40
2010,08,29,02,17,9.40
2010,08,29,02,18,9.40
2010,08,29,02,19,9.40
2010,08,29,02,20,9.40
2010,08,29,02,21,9.40
2010,08,29,02,22,9.40
2010,08,29,02,23,9.40
2010,08,29,02,24,9.40
2010,08,29,02,25,9.40
2010,08,29,02,26,9.40
2010,08,29,02,27,9.40
2010,08,29,02,28,9.40
2010,08,29,02,29,9.40
2010,08,29,02,30,9.40
2010,08,29,02,31,9.40
2010,08,29,02,32,9.40
2010,08,29,02,33,9.40
2010,08,29,02,34,9.30
2010,08,29,02,35,9.30
2010,08,29,02,36,9.30
2010,08,29,02,37,9.30
2010,08,29,02,38,9.30
2010,08,29,02,39,9.30
2010,08,29,02,40,9.20
2010,08,29,02,41,9.20
2010,08,29,02,42,9.20
2010,08,29,02,43,9.20
2010,08,29,02,44,9.10
2010,08,29,02,45,9.10
2010,08,29,02,46,9.10
2010,08,29,02,47,9.10
2010,08,29,02,48,9.00
2010,08,29,02,49,9.00
2010,08,29,02,50,8.90
2010,08,29,02,51,8.90
2010,08,29,02,52,8.90
2010,08,29,02,53,8.80
2010,08,29,02,54,8.80
2010,08,29,02,55,8.80
2010,08,29,02,56,8.80
2010,08,29,02,57,8.80
2010,08,29,02,58,8.70
2010,08,29,02,59,8.70
2010,08,29,03,00,8.70
2010,08,29,03,01,8.70
2010,08,29,03,02,8.70
2010,08,29,03,03,8.70
2010,08,29,03,04,8.70
2010,08,29,03,05,8.70
2010,08,29,03,06,8.80
2010,08,29,03,07,8.80
2010,08,29,03,08,8.80
2010,08,29,03,09,8.80
2010,08,29,03,10,8.80
2010,08,29,03,11,8.80
2010,08,29,03,12,8.80
2010,08,29,03,13,8.80
2010,08,29,03,14,8.80
2010,08,29,03,15,8.80
2010,08,29,03,16,8.80
2010,08,29,03,17,8.80
2010,08,29,03,18,8.90
2010,08,29,03,19,8.90
2010,08,29,03,20,9.00
2010,08,29,03,21,9.00
2010,08,29,03,22,9.10
2010,08,29,03,23,9.10
2010,08,29,03,24,9.10
2010,08,29,03,25,9.10
2010,08,29,03,26,9.10
2010,08,29,03,27,9.10
2010,08,29,03,28,9.00
2010,08,29,03,29,9.00
2010,08,29,03,30,8.90
2010,08,29,03,31,8.80
2010,08,29,03,32,8.80
2010,08,29,03,33,8.70
2010,08,29,03,34,8.70
2010,08,29,03,35,8.60
2010,08,29,03,36,8.60
2010,08,29,03,37,8.50
2010,08,29,03,38,8.50
2010,08,29,03,39,8.50
2010,08,29,03,40,8.40
2010,08,29,03,41,8.40
2010,08,29,03,42,8.40
2010,08,29,03,43,8.30
2010,08,29,03,44,8.30
2010,08,29,03,45,8.30
2010,08,29,03,46,8.30
2010,08,29,03,47,8.30
2010,08,29,03,48,8.20
2010,08,29,03,49,8.20
2010,08,29,03,50,8.20
2010,08,29,03,51,8.20
2010,08,29,03,52,8.20
2010,08,29,03,53,8.20
2010,08,29,03,54,8.20
2010,08,29,03,55,8.20
2010,08,29,03,56,8.20
2010,08,29,03,57,8.20
2010,08,29,03,58,8.10
2010,08,29,03,59,8.10
2010,08,29,04,00,8.10
2010,08,29,04,01,8.10
2010,08,29,04,02,8.10
2010,08,29,04,03,8.10
2010,08,29,04,04,8.10
2010,08,29,04,05,8.10
2010,08,29,04,06,8.00
2010,08,29,04,07,8.00
2010,08,29,04,08,8.00
2010,08,29,04,09,8.00
2010,08,29,04,10,7.90
2010,08,29,04,11,7.90
2010,08,29,04,12,7.90
2010,08,29,04,13,8.00
2010,08,29,04,14,7.90
2010,08,29,04,15,8.00
2010,08,29,04,16,7.90
2010,08,29,04,17,7.90
2010,08,29,04,18,7.90
2010,08,29,04,19,7.90
2010,08,29,04,20,7.90
2010,08,29,04,21,7.90
2010,08,29,04,22,7.90
2010,08,29,04,23,7.80
2010,08,29,04,24,7.80
2010,08,29,04,25,7.80
2010,08,29,04,26,7.90
2010,08,29,04,27,7.90
2010,08,29,04,28,7.90
2010,08,29,04,29,7.90
2010,08,29,04,30,7.90
2010,08,29,04,31,7.90
2010,08,29,04,32,7.90
2010,08,29,04,33,7.90
2010,08,29,04,34,7.80
2010,08,29,04,35,7.80
2010,08,29,04,36,7.80
2010,08,29,04,37,7.80
2010,08,29,04,38,7.80
2010,08,29,04,39,7.80
2010,08,29,04,40,7.80
2010,08,29,04,41,7.80
2010,08,29,04,42,7.70
2010,08,29,04,43,7.70
2010,08,29,04,44,7.70
2010,08,29,04,45,7.70
2010,08,29,04,46,7.70
2010,08,29,04,47,7.70
2010,08,29,04,48,7.70
2010,08,29,04,49,7.70
2010,08,29,04,50,7.60
2010,08,29,04,51,7.60
2010,08,29,04,52,7.60
2010,08,29,04,53,7.60
2010,08,29,04,54,7.60
2010,08,29,04,55,7.60
2010,08,29,04,56,7.60
2010,08,29,04,57,7.60
2010,08,29,04,58,7.60
2010,08,29,04,59,7.60
2010,08,29,05,00,7.60
2010,08,29,05,01,7.60
2010,08,29,05,02,7.60
2010,08,29,05,03,7.60
2010,08,29,05,04,7.60
2010,08,29,05,05,7.60
2010,08,29,05,06,7.60
2010,08,29,05,07,7.70
2010,08,29,05,08,7.70
2010,08,29,05,09,7.70
2010,08,29,05,10,7.70
2010,08,29,05,11,7.60
2010,08,29,05,12,7.60
2010,08,29,05,13,7.60
2010,08,29,05,14,7.60
2010,08,29,05,15,7.60
2010,08,29,05,16,7.60
2010,08,29,05,17,7.60
2010,08,29,05,18,7.60
2010,08,29,05,19,7.70
2010,08,29,05,20,7.70
2010,08,29,05,21,7.70
2010,08,29,05,22,7.70
2010,08,29,05,23,7.70
2010,08,29,05,24,7.70
2010,08,29,05,25,7.70
2010,08,29,05,26,7.70
2010,08,29,05,27,7.70
2010,08,29,05,28,7.70
2010,08,29,05,29,7.70
2010,08,29,05,30,7.70
2010,08,29,05,31,7.60
2010,08,29,05,32,7.60
2010,08,29,05,33,7.60
2010,08,29,05,34,7.60
2010,08,29,05,35,7.60
2010,08,29,05,36,7.50
2010,08,29,05,37,7.50
2010,08,29,05,38,7.40
2010,08,29,05,39,7.40
2010,08,29,05,40,7.40
2010,08,29,05,41,7.40
2010,08,29,05,42,7.30
2010,08,29,05,43,7.30
2010,08,29,05,44,7.30
2010,08,29,05,45,7.30
2010,08,29,05,46,7.30
2010,08,29,05,47,7.20
2010,08,29,05,48,7.20
2010,08,29,05,49,7.10
2010,08,29,05,50,7.10
2010,08,29,05,51,7.10
2010,08,29,05,52,7.10
2010,08,29,05,53,7.10
2010,08,29,05,54,7.10
2010,08,29,05,55,7.00
2010,08,29,05,56,7.00
2010,08,29,05,57,7.00
2010,08,29,05,58,7.00
2010,08,29,05,59,7.00
2010,08,29,06,00,7.00
2010,08,29,06,01,7.10
2010,08,29,06,02,7.10
2010,08,29,06,03,7.10
2010,08,29,06,04,7.10
2010,08,29,06,05,7.10
2010,08,29,06,06,7.10
2010,08,29,06,07,7.00
2010,08,29,06,08,7.00
2010,08,29,06,09,6.90
2010,08,29,06,10,6.90
2010,08,29,06,11,6.90
2010,08,29,06,12,6.90
2010,08,29,06,13,6.80
2010,08,29,06,14,6.80
2010,08,29,06,15,6.80
2010,08,29,06,16,6.80
2010,08,29,06,17,6.80
2010,08,29,06,18,6.80
2010,08,29,06,19,6.80
2010,08,29,06,20,6.80
2010,08,29,06,21,6.80
2010,08,29,06,22,6.80
2010,08,29,06,23,6.90
2010,08,29,06,24,6.90
2010,08,29,06,25,6.90
2010,08,29,06,26,6.90
2010,08,29,06,27,6.90
2010,08,29,06,28,6.90
2010,08,29,06,29,6.90
2010,08,29,06,30,6.90
2010,08,29,06,31,7.00
2010,08,29,06,32,7.00
2010,08,29,06,33,6.90
2010,08,29,06,34,6.90
2010,08,29,06,35,6.90
2010,08,29,06,36,6.90
2010,08,29,06,37,6.90
2010,08,29,06,38,6.90
2010,08,29,06,39,6.90
2010,08,29,06,40,6.90
2010,08,29,06,41,6.90
2010,08,29,06,42,6.90
2010,08,29,06,43,7.00
2010,08,29,06,44,7.00
2010,08,29,06,45,7.00
2010,08,29,06,46,7.00
2010,08,29,06,47,7.10
2010,08,29,06,48,7.10
2010,08,29,06,49,7.10
2010,08,29,06,50,7.10
2010,08,29,06,51,7.20
2010,08,29,06,52,7.20
2010,08,29,06,53,7.20
2010,08,29,06,54,7.20
2010,08,29,06,55,7.20
2010,08,29,06,56,7.20
2010,08,29,06,57,7.20
2010,08,29,06,58,7.20
2010,08,29,06,59,7.20
2010,08,29,07,00,7.20
2010,08,29,07,01,7.20
2010,08,29,07,02,7.20
2010,08,29,07,03,7.20
2010,08,29,07,04,7.20
2010,08,29,07,05,7.20
2010,08,29,07,06,7.20
2010,08,29,07,07,7.20
2010,08,29,07,08,7.20
2010,08,29,07,09,7.30
2010,08,29,07,10,7.30
2010,08,29,07,11,7.40
2010,08,29,07,12,7.40
2010,08,29,07,13,7.50
2010,08,29,07,14,7.60
2010,08,29,07,15,7.60
2010,08,29,07,16,7.60
2010,08,29,07,17,7.70
2010,08,29,07,18,7.70
2010,08,29,07,19,7.80
2010,08,29,07,20,7.80
2010,08,29,07,21,7.80
2010,08,29,07,22,7.90
2010,08,29,07,23,8.00
2010,08,29,07,24,8.10
2010,08,29,07,25,8.10
2010,08,29,07,26,8.20
2010,08,29,07,27,8.30
2010,08,29,07,28,8.40
2010,08,29,07,29,8.50
2010,08,29,07,30,8.50
2010,08,29,07,31,8.60
2010,08,29,07,32,8.70
2010,08,29,07,33,8.70
2010,08,29,07,34,8.70
2010,08,29,07,35,8.70
2010,08,29,07,36,8.80
2010,08,29,07,37,8.80
2010,08,29,07,38,8.80
2010,08,29,07,39,8.80
2010,08,29,07,40,8.80
2010,08,29,07,41,8.80
2010,08,29,07,42,8.80
2010,08,29,07,43,8.80
2010,08,29,07,44,8.90
2010,08,29,07,45,8.90
2010,08,29,07,46,8.90
2010,08,29,07,47,8.90
2010,08,29,07,48,9.00
2010,08,29,07,49,9.00
2010,08,29,07,50,9.10
2010,08,29,07,51,9.10
2010,08,29,07,52,9.10
2010,08,29,07,53,9.20
2010,08,29,07,54,9.30
2010,08,29,07,55,9.30
2010,08,29,07,56,9.50
2010,08,29,07,57,9.60
2010,08,29,07,58,9.70
2010,08,29,07,59,9.80
2010,08,29,08,00,9.80
2010,08,29,08,01,9.90
2010,08,29,08,02,10.00
2010,08,29,08,03,10.00
2010,08,29,08,04,10.10
2010,08,29,08,05,10.10
2010,08,29,08,06,10.20
2010,08,29,08,07,10.30
2010,08,29,08,08,10.30
2010,08,29,08,09,10.40
2010,08,29,08,10,10.50
2010,08,29,08,11,10.50
2010,08,29,08,12,10.60
2010,08,29,08,13,10.70
2010,08,29,08,14,10.80
2010,08,29,08,15,10.80
2010,08,29,08,16,10.90
2010,08,29,08,17,11.00
2010,08,29,08,18,11.10
2010,08,29,08,19,11.10
2010,08,29,08,20,11.20
2010,08,29,08,21,11.30
2010,08,29,08,22,11.30
2010,08,29,08,23,11.40
2010,08,29,08,24,11.50
2010,08,29,08,25,11.70
2010,08,29,08,26,11.80
2010,08,29,08,27,12.00
2010,08,29,08,28,12.10
2010,08,29,08,29,12.30
2010,08,29,08,30,12.40
2010,08,29,08,31,12.50
2010,08,29,08,32,12.60
2010,08,29,08,33,12.70
2010,08,29,08,34,12.70
2010,08,29,08,35,12.70
2010,08,29,08,36,12.70
2010,08,29,08,37,12.70
2010,08,29,08,38,12.70
2010,08,29,08,39,12.60
2010,08,29,08,40,12.70
2010,08,29,08,41,12.70
2010,08,29,08,42,12.80
2010,08,29,08,43,12.80
2010,08,29,08,44,12.80
2010,08,29,08,45,12.80
2010,08,29,08,46,12.80
2010,08,29,08,47,12.80
2010,08,29,08,48,12.80
2010,08,29,08,49,12.80
2010,08,29,08,50,12.90
2010,08,29,08,51,13.00
2010,08,29,08,52,13.00
2010,08,29,08,53,13.10
2010,08,29,08,54,13.10
2010,08,29,08,55,13.10
2010,08,29,08,56,13.20
2010,08,29,08,57,13.20
2010,08,29,08,58,13.30
2010,08,29,08,59,13.30
2010,08,29,09,00,13.40
2010,08,29,09,01,13.50
2010,08,29,09,02,13.60
2010,08,29,09,03,13.70
2010,08,29,09,04,13.70
2010,08,29,09,05,13.80
2010,08,29,09,06,13.90
2010,08,29,09,07,13.90
2010,08,29,09,08,14.00
2010,08,29,09,09,14.10
2010,08,29,09,10,14.10
2010,08,29,09,11,14.10
2010,08,29,09,12,14.10
2010,08,29,09,13,14.20
2010,08,29,09,14,14.20
2010,08,29,09,15,14.10
2010,08,29,09,16,14.10
2010,08,29,09,17,14.00
2010,08,29,09,18,14.00
2010,08,29,09,19,14.10
2010,08,29,09,20,14.20
2010,08,29,09,21,14.30
2010,08,29,09,22,14.30
2010,08,29,09,23,14.30
2010,08,29,09,24,14.30
2010,08,29,09,25,14.40
2010,08,29,09,26,14.40
2010,08,29,09,27,14.30
2010,08,29,09,28,14.30
2010,08,29,09,29,14.30
2010,08,29,09,30,14.40
2010,08,29,09,31,14.50
2010,08,29,09,32,14.50
2010,08,29,09,33,14.50
2010,08,29,09,34,14.50
2010,08,29,09,35,14.60
2010,08,29,09,36,14.50
2010,08,29,09,37,14.50
2010,08,29,09,38,14.50
2010,08,29,09,39,14.50
2010,08,29,09,40,14.60
2010,08,29,09,41,14.60
2010,08,29,09,42,14.60
2010,08,29,09,43,14.60
2010,08,29,09,44,14.60
2010,08,29,09,45,14.50
2010,08,29,09,46,14.40
2010,08,29,09,47,14.40
2010,08,29,09,48,14.40
2010,08,29,09,49,14.40
2010,08,29,09,50,14.40
2010,08,29,09,51,14.40
2010,08,29,09,52,14.50
2010,08,29,09,53,14.40
2010,08,29,09,54,14.40
2010,08,29,09,55,14.40
2010,08,29,09,56,14.50
2010,08,29,09,57,14.50
2010,08,29,09,58,14.50
2010,08,29,09,59,14.50
2010,08,29,10,00,14.50
2010,08,29,10,01,14.60
2010,08,29,10,02,14.70
2010,08,29,10,03,14.80
2010,08,29,10,04,14.80
2010,08,29,10,05,14.90
2010,08,29,10,06,14.80
2010,08,29,10,07,14.80
2010,08,29,10,08,14.80
2010,08,29,10,09,14.80
2010,08,29,10,10,14.80
2010,08,29,10,11,14.80
2010,08,29,10,12,14.90
2010,08,29,10,13,14.90
2010,08,29,10,14,14.90
2010,08,29,10,15,14.90
2010,08,29,10,16,14.80
2010,08,29,10,17,14.80
2010,08,29,10,18,14.70
2010,08,29,10,19,14.70
2010,08,29,10,20,14.60
2010,08,29,10,21,14.50
2010,08,29,10,22,14.40
2010,08,29,10,23,14.30
2010,08,29,10,24,14.30
2010,08,29,10,25,14.40
2010,08,29,10,26,14.40
2010,08,29,10,27,14.40
2010,08,29,10,28,14.40
2010,08,29,10,29,14.40
2010,08,29,10,30,14.50
2010,08,29,10,31,14.50
2010,08,29,10,32,14.40
2010,08,29,10,33,14.20
2010,08,29,10,34,14.10
2010,08,29,10,35,14.00
2010,08,29,10,36,14.00
2010,08,29,10,37,14.00
2010,08,29,10,38,14.00
2010,08,29,10,39,13.90
2010,08,29,10,40,13.90
2010,08,29,10,41,14.00
2010,08,29,10,42,14.00
2010,08,29,10,43,14.10
2010,08,29,10,44,14.10
2010,08,29,10,45,14.00
2010,08,29,10,46,14.00
2010,08,29,10,47,13.90
2010,08,29,10,48,13.80
2010,08,29,10,49,13.70
2010,08,29,10,50,13.70
2010,08,29,10,51,13.70
2010,08,29,10,52,13.60
2010,08,29,10,53,13.60
2010,08,29,10,54,13.60
2010,08,29,10,55,13.50
2010,08,29,10,56,13.40
2010,08,29,10,57,13.40
2010,08,29,10,58,13.50
2010,08,29,10,59,13.60
2010,08,29,11,00,13.70
2010,08,29,11,01,13.90
2010,08,29,11,02,14.00
2010,08,29,11,03,14.00
2010,08,29,11,04,14.00
2010,08,29,11,05,14.00
2010,08,29,11,06,14.00
2010,08,29,11,07,13.90
2010,08,29,11,08,13.90
2010,08,29,11,09,13.90
2010,08,29,11,10,14.00
2010,08,29,11,11,14.00
2010,08,29,11,12,14.00
2010,08,29,11,13,13.90
2010,08,29,11,14,13.90
2010,08,29,11,15,13.80
2010,08,29,11,16,13.80
2010,08,29,11,17,13.80
2010,08,29,11,18,13.70
2010,08,29,11,19,13.70
2010,08,29,11,20,13.60
2010,08,29,11,21,13.60
2010,08,29,11,22,13.50
2010,08,29,11,23,13.50
2010,08,29,11,24,13.60
2010,08,29,11,25,13.60
2010,08,29,11,26,13.60
2010,08,29,11,27,13.70
2010,08,29,11,28,13.70
2010,08,29,11,29,13.70
2010,08,29,11,30,13.70
2010,08,29,11,31,13.70
2010,08,29,11,32,13.70
2010,08,29,11,33,13.80
2010,08,29,11,34,13.80
2010,08,29,11,35,13.90
2010,08,29,11,36,14.00
2010,08,29,11,37,13.90
2010,08,29,11,38,13.90
2010,08,29,11,39,13.90
2010,08,29,11,40,13.90
2010,08,29,11,41,14.00
2010,08,29,11,42,14.00
2010,08,29,11,43,14.10
2010,08,29,11,44,14.10
2010,08,29,11,45,14.20
2010,08,29,11,46,14.10
2010,08,29,11,47,14.10
2010,08,29,11,48,14.20
2010,08,29,11,49,14.20
2010,08,29,11,50,14.30
2010,08,29,11,51,14.40
2010,08,29,11,52,14.40
2010,08,29,11,53,14.40
2010,08,29,11,54,14.40
2010,08,29,11,55,14.40
2010,08,29,11,56,14.40
2010,08,29,11,57,14.50
2010,08,29,11,58,14.60
2010,08,29,11,59,14.60
2010,08,29,12,00,14.60
2010,08,29,12,01,14.60
2010,08,29,12,02,14.70
2010,08,29,12,03,14.70
2010,08,29,12,04,14.80
2010,08,29,12,05,14.90
2010,08,29,12,06,14.90
2010,08,29,12,07,14.90
2010,08,29,12,08,15.00
2010,08,29,12,09,15.10
2010,08,29,12,10,15.10
2010,08,29,12,11,15.00
2010,08,29,12,12,15.00
2010,08,29,12,13,15.00
2010,08,29,12,14,15.00
2010,08,29,12,15,15.10
2010,08,29,12,16,15.10
2010,08,29,12,17,15.20
2010,08,29,12,18,15.20
2010,08,29,12,19,15.20
2010,08,29,12,20,15.30
2010,08,29,12,21,15.40
2010,08,29,12,22,15.40
2010,08,29,12,23,15.50
2010,08,29,12,24,15.60
2010,08,29,12,25,15.70
2010,08,29,12,26,15.70
2010,08,29,12,27,15.80
2010,08,29,12,28,15.90
2010,08,29,12,29,16.00
2010,08,29,12,30,16.10
2010,08,29,12,31,16.20
2010,08,29,12,32,16.30
2010,08,29,12,33,16.30
2010,08,29,12,34,16.30
2010,08,29,12,35,16.20
2010,08,29,12,36,16.30
2010,08,29,12,37,16.30
2010,08,29,12,38,16.40
2010,08,29,12,39,16.40
2010,08,29,12,40,16.30
2010,08,29,12,41,16.40
2010,08,29,12,42,16.40
2010,08,29,12,43,16.50
2010,08,29,12,44,16.60
2010,08,29,12,45,16.70
2010,08,29,12,46,16.70
2010,08,29,12,47,16.80
2010,08,29,12,48,16.80
2010,08,29,12,49,16.90
2010,08,29,12,50,16.90
2010,08,29,12,51,16.90
2010,08,29,12,52,16.90
2010,08,29,12,53,17.00
2010,08,29,12,54,17.00
2010,08,29,12,55,17.10
2010,08,29,12,56,17.20
2010,08,29,12,57,17.30
2010,08,29,12,58,17.20
2010,08,29,12,59,17.20
2010,08,29,13,00,17.20
2010,08,29,13,01,17.20
2010,08,29,13,02,17.10
2010,08,29,13,03,17.10
2010,08,29,13,04,17.10
2010,08,29,13,05,17.10
2010,08,29,13,06,17.20
2010,08,29,13,07,17.20
2010,08,29,13,08,17.30
2010,08,29,13,09,17.20
2010,08,29,13,10,17.30
2010,08,29,13,11,17.30
2010,08,29,13,12,17.40
2010,08,29,13,13,17.40
2010,08,29,13,14,17.40
2010,08,29,13,15,17.40
2010,08,29,13,16,17.40
2010,08,29,13,17,17.30
2010,08,29,13,18,17.30
2010,08,29,13,19,17.30
2010,08,29,13,20,17.20
2010,08,29,13,21,17.20
2010,08,29,13,22,17.30
2010,08,29,13,23,17.50
2010,08,29,13,24,17.60
2010,08,29,13,25,17.80
2010,08,29,13,26,17.80
2010,08,29,13,27,17.90
2010,08,29,13,28,18.00
2010,08,29,13,29,18.00
2010,08,29,13,30,18.00
2010,08,29,13,31,17.80
2010,08,29,13,32,17.80
2010,08,29,13,33,17.90
2010,08,29,13,34,18.00
2010,08,29,13,35,18.10
2010,08,29,13,36,18.00
2010,08,29,13,37,18.00
2010,08,29,13,38,18.00
2010,08,29,13,39,18.10
2010,08,29,13,40,18.10
2010,08,29,13,41,18.00
2010,08,29,13,42,17.90
2010,08,29,13,43,17.80
2010,08,29,13,44,17.80
2010,08,29,13,45,17.80
2010,08,29,13,46,17.90
2010,08,29,13,47,18.00
2010,08,29,13,48,18.10
2010,08,29,13,49,18.20
2010,08,29,13,50,18.30
2010,08,29,13,51,18.40
2010,08,29,13,52,18.40
2010,08,29,13,53,18.20
2010,08,29,13,54,18.10
2010,08,29,13,55,18.10
2010,08,29,13,56,18.10
2010,08,29,13,57,18.20
2010,08,29,13,58,18.30
2010,08,29,13,59,18.30
2010,08,29,14,00,18.40
2010,08,29,14,01,18.20
2010,08,29,14,02,18.20
2010,08,29,14,03,18.20
2010,08,29,14,04,18.30
2010,08,29,14,05,18.30
2010,08,29,14,06,18.50
2010,08,29,14,07,18.50
2010,08,29,14,08,18.30
2010,08,29,14,09,18.10
2010,08,29,14,10,18.10
2010,08,29,14,11,18.10
2010,08,29,14,12,18.20
2010,08,29,14,13,18.30
2010,08,29,14,14,18.40
2010,08,29,14,15,18.40
2010,08,29,14,16,18.30
2010,08,29,14,17,18.40
2010,08,29,14,18,18.40
2010,08,29,14,19,18.50
2010,08,29,14,20,18.50
2010,08,29,14,21,18.50
2010,08,29,14,22,18.40
2010,08,29,14,23,18.40
2010,08,29,14,24,18.40
2010,08,29,14,25,18.40
2010,08,29,14,26,18.50
2010,08,29,14,27,18.50
2010,08,29,14,28,18.50
2010,08,29,14,29,18.40
2010,08,29,14,30,18.30
2010,08,29,14,31,18.20
2010,08,29,14,32,18.20
2010,08,29,14,33,18.10
2010,08,29,14,34,18.10
2010,08,29,14,35,18.10
2010,08,29,14,36,18.10
2010,08,29,14,37,18.00
2010,08,29,14,38,18.10
2010,08,29,14,39,18.20
2010,08,29,14,40,18.30
2010,08,29,14,41,18.50
2010,08,29,14,42,18.60
2010,08,29,14,43,18.50
2010,08,29,14,44,18.50
2010,08,29,14,45,18.60
2010,08,29,14,46,18.60
2010,08,29,14,47,18.70
2010,08,29,14,48,18.80
2010,08,29,14,49,18.90
2010,08,29,14,50,18.80
2010,08,29,14,51,18.80
2010,08,29,14,52,18.80
2010,08,29,14,53,18.90
2010,08,29,14,54,19.10
2010,08,29,14,55,19.10
2010,08,29,14,56,19.10
2010,08,29,14,57,19.00
2010,08,29,14,58,18.90
2010,08,29,14,59,18.80
2010,08,29,15,00,18.80
2010,08,29,15,01,18.80
2010,08,29,15,02,18.60
2010,08,29,15,03,18.50
2010,08,29,15,04,18.40
2010,08,29,15,05,18.30
2010,08,29,15,06,18.30
2010,08,29,15,07,18.30
2010,08,29,15,08,18.40
2010,08,29,15,09,18.40
2010,08,29,15,10,18.50
2010,08,29,15,11,18.50
2010,08,29,15,12,18.50
2010,08,29,15,13,18.50
2010,08,29,15,14,18.40
2010,08,29,15,15,18.40
2010,08,29,15,16,18.30
2010,08,29,15,17,18.30
2010,08,29,15,18,18.30
2010,08,29,15,19,18.40
2010,08,29,15,20,18.30
2010,08,29,15,21,18.40
2010,08,29,15,22,18.40
2010,08,29,15,23,18.40
2010,08,29,15,24,18.40
2010,08,29,15,25,18.40
2010,08,29,15,26,18.30
2010,08,29,15,27,18.30
2010,08,29,15,28,18.30
2010,08,29,15,29,18.40
2010,08,29,15,30,18.50
2010,08,29,15,31,18.50
2010,08,29,15,32,18.60
2010,08,29,15,33,18.50
2010,08,29,15,34,18.50
2010,08,29,15,35,18.50
2010,08,29,15,36,18.50
2010,08,29,15,37,18.60
2010,08,29,15,38,18.70
2010,08,29,15,39,18.70
2010,08,29,15,40,18.70
2010,08,29,15,41,18.70
2010,08,29,15,42,18.70
2010,08,29,15,43,18.60
2010,08,29,15,44,18.60
2010,08,29,15,45,18.60
2010,08,29,15,46,18.60
2010,08,29,15,47,18.50
2010,08,29,15,48,18.40
2010,08,29,15,49,18.30
2010,08,29,15,50,18.30
2010,08,29,15,51,18.20
2010,08,29,15,52,18.20
2010,08,29,15,53,18.20
2010,08,29,15,54,18.20
2010,08,29,15,55,18.30
2010,08,29,15,56,18.30
2010,08,29,15,57,18.30
2010,08,29,15,58,18.40
2010,08,29,15,59,18.30
2010,08,29,16,00,18.30
2010,08,29,16,01,18.30
2010,08,29,16,02,18.30
2010,08,29,16,03,18.30
2010,08,29,16,04,18.30
2010,08,29,16,05,18.30
2010,08,29,16,06,18.30
2010,08,29,16,07,18.20
2010,08,29,16,08,18.20
2010,08,29,16,09,18.20
2010,08,29,16,10,18.10
2010,08,29,16,11,18.20
2010,08,29,16,12,18.20
2010,08,29,16,13,18.20
2010,08,29,16,14,18.20
2010,08,29,16,15,18.30
2010,08,29,16,16,18.40
2010,08,29,16,17,18.50
2010,08,29,16,18,18.50
2010,08,29,16,19,18.60
2010,08,29,16,20,18.70
2010,08,29,16,21,18.80
2010,08,29,16,22,18.90
2010,08,29,16,23,18.80
2010,08,29,16,24,18.70
2010,08,29,16,25,18.50
2010,08,29,16,26,18.40
2010,08,29,16,27,18.40
2010,08,29,16,28,18.40
2010,08,29,16,29,18.40
2010,08,29,16,30,18.40
2010,08,29,16,31,18.40
2010,08,29,16,32,18.40
2010,08,29,16,33,18.30
2010,08,29,16,34,18.30
2010,08,29,16,35,18.30
2010,08,29,16,36,18.30
2010,08,29,16,37,18.30
2010,08,29,16,38,18.40
2010,08,29,16,39,18.40
2010,08,29,16,40,18.50
2010,08,29,16,41,18.40
2010,08,29,16,42,18.40
2010,08,29,16,43,18.50
2010,08,29,16,44,18.50
2010,08,29,16,45,18.60
2010,08,29,16,46,18.60
2010,08,29,16,47,18.60
2010,08,29,16,48,18.70
2010,08,29,16,49,18.80
2010,08,29,16,50,18.90
2010,08,29,16,51,18.90
2010,08,29,16,52,19.00
2010,08,29,16,53,18.90
2010,08,29,16,54,18.90
2010,08,29,16,55,18.90
2010,08,29,16,56,18.80
2010,08,29,16,57,18.80
2010,08,29,16,58,18.80
2010,08,29,16,59,18.90
2010,08,29,17,00,18.90
2010,08,29,17,01,18.90
2010,08,29,17,02,19.00
2010,08,29,17,03,19.00
2010,08,29,17,04,18.90
2010,08,29,17,05,18.80
2010,08,29,17,06,18.80
2010,08,29,17,07,18.80
2010,08,29,17,08,18.80
2010,08,29,17,09,18.70
2010,08,29,17,10,18.70
2010,08,29,17,11,18.70
2010,08,29,17,12,18.70
2010,08,29,17,13,18.70
2010,08,29,17,14,18.70
2010,08,29,17,15,18.60
2010,08,29,17,16,18.60
2010,08,29,17,17,18.60
2010,08,29,17,18,18.60
2010,08,29,17,19,18.50
2010,08,29,17,20,18.50
2010,08,29,17,21,18.40
2010,08,29,17,22,18.30
2010,08,29,17,23,18.30
2010,08,29,17,24,18.20
2010,08,29,17,25,18.20
2010,08,29,17,26,18.20
2010,08,29,17,27,18.10
2010,08,29,17,28,18.10
2010,08,29,17,29,18.10
2010,08,29,17,30,18.10
2010,08,29,17,31,18.00
2010,08,29,17,32,17.90
2010,08,29,17,33,17.90
2010,08,29,17,34,17.90
2010,08,29,17,35,17.90
2010,08,29,17,36,17.90
2010,08,29,17,37,17.80
2010,08,29,17,38,17.90